{"data":{"norad_id":69181,"intl_designator":"2026-113B","name":"CZ-2F R/B","alt_names":[],"object_type":"ROCKET_BODY","status":"UNKNOWN","operator":null,"country":"PRC","launch_date":"2026-05-24","launch_site_code":"JSC","launch_vehicle":null,"mission":null,"orbit_class":"UNKNOWN","rcs_meters":null,"size_class":null,"mass_kg":null,"dimensions":null,"purposes":[],"wikipedia_slug":null,"has_3d_model":false,"image_url":null,"decayed_at":null,"tle_current":{"epoch":"2026-06-07T01:15:58.248864Z","epoch_age_seconds":9138080,"freshness":"OLD","line1":"1 69181U 26113B   26158.05275751  .04546966  79268-5  33387-3 0  9996","line2":"2 69181  41.4560  17.1217 0039572 241.7538 117.9330 16.35707038  2176","mean_motion":16.35707038,"eccentricity":0.0039572,"inclination_deg":41.456,"raan_deg":17.1217,"arg_perigee_deg":241.7538,"mean_anomaly_deg":117.933,"bstar":0.00033387,"rev_number":217,"period_min":88.035324575036,"perigee_km":151.30637990331,"apogee_km":203.18831377794,"semimajor_km":6555.3843468406,"source":"CELESTRAK","updated_at":"2026-06-08T09:00:30.615265Z"}}}